Hourly Data Report for May 09, 2012

All times are specified in Local Standard Time (LST). Add 1 hour to adjust for Daylight Saving Time where and when it is observed.

LONDON A
ONTARIO

43°01'59.000" N
81°09'04.000" W
278.00 m
6144473
71623
YXU

Download Data

Hourly Data (May 2012)
Hourly Data Report for May 9, 2012
Temp Definition
°C
Dew Point Temp Definition
°C
Rel Hum Definition
%
Wind Dir Definition
10's deg

Wind Spd Definition
km/h
Visibility Definition
km
Stn Press Definition
kPa
Hmdx Definition


Wind Chill Definition


Weather Definition


TIME
00:00 Legend Double Dagger 11.8 11.2 96 21 4 10.0 97.60     LegendNANA
01:00 Legend Double Dagger 11.0 10.7 98 22 6 10.0 97.56     Mostly Cloudy
02:00 Legend Double Dagger 10.8 8.9 88 27 12 10.0 97.52     LegendNANA
03:00 Legend Double Dagger 9.2 7.5 89 26 10 10.0 97.52     LegendNANA
04:00 Legend Double Dagger 8.6 7.1 90 26 9 10.0 97.51     Mainly Clear
05:00 Legend Double Dagger 8.4 6.7 89 26 9 10.0 97.54     LegendNANA
06:00 Legend Double Dagger 8.8 7.3 90 25 9 10.0 97.56     LegendNANA
07:00 Legend Double Dagger 11.7 8.6 81 26 5 10.0 97.53     Mainly Clear
08:00 Legend Double Dagger 14.1 8.8 70 22 7 10.0 97.49     LegendNANA
09:00 Legend Double Dagger 16.2 9.5 64 23 11 10.0 97.47     LegendNANA
10:00 Legend Double Dagger 17.3 9.6 60 24 19 10.0 97.44     Mainly Clear
11:00 Legend Double Dagger 16.5 9.0 61 28 21 10.0 97.43     LegendNANA
12:00 Legend Double Dagger 15.0 10.1 72 30 22 10.0 97.39     LegendNANA
13:00 Legend Double Dagger 14.8 10.3 74 29 21 10.0 97.41     Mostly Cloudy
14:00 Legend Double Dagger 12.1 8.2 77 31 24 10.0 97.46     LegendNANA
15:00 Legend Double Dagger 12.5 7.8 73 30 17 10.0 97.47     LegendNANA
16:00 Legend Double Dagger 12.0 7.4 73 33 24 10.0 97.46     Mostly Cloudy
17:00 Legend Double Dagger 10.6 7.1 79 32 25 10.0 97.50     LegendNANA
18:00 Legend Double Dagger 10.8 6.6 75 34 27 10.0 97.51     LegendNANA
19:00 Legend Double Dagger 9.3 6.2 81 34 19 10.0 97.55     Mostly Cloudy
20:00 Legend Double Dagger 8.8 6.3 84 33 19 10.0 97.58     LegendNANA
21:00 Legend Double Dagger 8.5 6.1 85 34 19 10.0 97.64     LegendNANA
22:00 Legend Double Dagger 7.6 5.6 87 32 18 10.0 97.65     Mainly Clear
23:00 Legend Double Dagger 7.1 5.3 88 31 7 10.0 97.63     LegendNANA

Notes on Data Quality.

Legend

  • E = Estimated
  • M = Missing
  • NA = Not Available
  • ‡ = Partner data that is not subject to review by the National Climate Archives
Date modified: